Location: Buffign�court
(47.8126°N, 6.0176°E)
Time: 20:43:40
(UTC+00:00)

Cosmos 1864 Rocket - Pass Details

Date: 16 June 2021
Orbit: 950 x 998 km, 82.9° (Epoch: 23 July)

Event Time Altitude Azimuth Distance (km) Brightness Sun altitude
Rises 21:22:18 0° 351° (N) 3,680 8.9 -12.7°
Reaches altitude 10° 21:24:50 10° 354° (N) 2,722 7.9 -12.9°
Maximum altitude 21:31:04 76° 80° (E) 993 4.5 -13.4°
Enters shadow 21:35:43 18° 164° (SSE) 2,136 5.7 -13.8°
